Year,Month,Day,Hour,Minute,Value (Times are PST for temperature in C)
2012,03,18,00,00,2.60
2012,03,18,00,01,2.60
2012,03,18,00,02,2.60
2012,03,18,00,03,2.50
2012,03,18,00,04,2.50
2012,03,18,00,05,2.60
2012,03,18,00,06,2.50
2012,03,18,00,07,2.50
2012,03,18,00,08,2.50
2012,03,18,00,09,2.60
2012,03,18,00,10,2.60
2012,03,18,00,11,2.60
2012,03,18,00,12,2.60
2012,03,18,00,13,2.60
2012,03,18,00,14,2.60
2012,03,18,00,15,2.70
2012,03,18,00,16,2.70
2012,03,18,00,17,2.70
2012,03,18,00,18,2.80
2012,03,18,00,19,2.80
2012,03,18,00,20,2.80
2012,03,18,00,21,2.80
2012,03,18,00,22,2.80
2012,03,18,00,23,2.80
2012,03,18,00,24,2.80
2012,03,18,00,25,2.70
2012,03,18,00,26,2.70
2012,03,18,00,27,2.70
2012,03,18,00,28,2.80
2012,03,18,00,29,2.80
2012,03,18,00,30,2.80
2012,03,18,00,31,2.80
2012,03,18,00,32,2.80
2012,03,18,00,33,2.80
2012,03,18,00,34,2.80
2012,03,18,00,35,2.80
2012,03,18,00,36,2.80
2012,03,18,00,37,2.80
2012,03,18,00,38,2.80
2012,03,18,00,39,2.80
2012,03,18,00,40,2.80
2012,03,18,00,41,2.70
2012,03,18,00,42,2.70
2012,03,18,00,43,2.70
2012,03,18,00,44,2.70
2012,03,18,00,45,2.70
2012,03,18,00,46,2.70
2012,03,18,00,47,2.70
2012,03,18,00,48,2.70
2012,03,18,00,49,2.70
2012,03,18,00,50,2.70
2012,03,18,00,51,2.70
2012,03,18,00,52,2.70
2012,03,18,00,53,2.70
2012,03,18,00,54,2.80
2012,03,18,00,55,2.80
2012,03,18,00,56,2.80
2012,03,18,00,57,2.80
2012,03,18,00,58,2.80
2012,03,18,00,59,2.80
2012,03,18,01,00,2.90
2012,03,18,01,01,2.90
2012,03,18,01,02,2.90
2012,03,18,01,03,2.90
2012,03,18,01,04,2.90
2012,03,18,01,05,2.90
2012,03,18,01,06,2.90
2012,03,18,01,07,2.90
2012,03,18,01,08,2.90
2012,03,18,01,09,2.90
2012,03,18,01,10,2.90
2012,03,18,01,11,2.80
2012,03,18,01,12,2.80
2012,03,18,01,13,2.80
2012,03,18,01,14,2.80
2012,03,18,01,15,2.80
2012,03,18,01,16,2.80
2012,03,18,01,17,2.80
2012,03,18,01,18,2.70
2012,03,18,01,19,2.70
2012,03,18,01,20,2.80
2012,03,18,01,21,2.80
2012,03,18,01,22,2.80
2012,03,18,01,23,2.80
2012,03,18,01,24,2.80
2012,03,18,01,25,2.80
2012,03,18,01,26,2.80
2012,03,18,01,27,2.80
2012,03,18,01,28,2.80
2012,03,18,01,29,2.80
2012,03,18,01,30,2.80
2012,03,18,01,31,2.80
2012,03,18,01,32,2.80
2012,03,18,01,33,2.80
2012,03,18,01,34,2.80
2012,03,18,01,35,2.80
2012,03,18,01,36,2.70
2012,03,18,01,37,2.70
2012,03,18,01,38,2.70
2012,03,18,01,39,2.60
2012,03,18,01,40,2.50
2012,03,18,01,41,2.40
2012,03,18,01,42,2.40
2012,03,18,01,43,2.30
2012,03,18,01,44,2.30
2012,03,18,01,45,2.20
2012,03,18,01,46,2.20
2012,03,18,01,47,2.20
2012,03,18,01,48,2.20
2012,03,18,01,49,2.20
2012,03,18,01,50,2.10
2012,03,18,01,51,2.10
2012,03,18,01,52,2.10
2012,03,18,01,53,2.10
2012,03,18,01,54,2.10
2012,03,18,01,55,2.10
2012,03,18,01,56,2.10
2012,03,18,01,57,2.10
2012,03,18,01,58,2.10
2012,03,18,01,59,2.10
2012,03,18,02,00,2.10
2012,03,18,02,01,2.10
2012,03,18,02,02,2.10
2012,03,18,02,03,2.10
2012,03,18,02,04,2.10
2012,03,18,02,05,2.10
2012,03,18,02,06,2.10
2012,03,18,02,07,2.10
2012,03,18,02,08,2.10
2012,03,18,02,09,2.10
2012,03,18,02,10,2.10
2012,03,18,02,11,2.10
2012,03,18,02,12,2.10
2012,03,18,02,13,2.10
2012,03,18,02,14,2.10
2012,03,18,02,15,2.10
2012,03,18,02,16,2.10
2012,03,18,02,17,2.10
2012,03,18,02,18,2.00
2012,03,18,02,19,2.00
2012,03,18,02,20,2.00
2012,03,18,02,21,2.00
2012,03,18,02,22,2.00
2012,03,18,02,23,2.00
2012,03,18,02,24,2.00
2012,03,18,02,25,2.00
2012,03,18,02,26,2.00
2012,03,18,02,27,2.00
2012,03,18,02,28,2.00
2012,03,18,02,29,2.00
2012,03,18,02,30,2.00
2012,03,18,02,31,2.00
2012,03,18,02,32,2.00
2012,03,18,02,33,1.90
2012,03,18,02,34,1.90
2012,03,18,02,35,1.90
2012,03,18,02,36,1.90
2012,03,18,02,37,1.90
2012,03,18,02,38,1.90
2012,03,18,02,39,1.90
2012,03,18,02,40,1.90
2012,03,18,02,41,1.90
2012,03,18,02,42,1.90
2012,03,18,02,43,1.90
2012,03,18,02,44,1.90
2012,03,18,02,45,1.90
2012,03,18,02,46,1.90
2012,03,18,02,47,1.90
2012,03,18,02,48,1.90
2012,03,18,02,49,1.90
2012,03,18,02,50,1.90
2012,03,18,02,51,1.90
2012,03,18,02,52,1.90
2012,03,18,02,53,1.80
2012,03,18,02,54,1.80
2012,03,18,02,55,1.80
2012,03,18,02,56,1.80
2012,03,18,02,57,1.80
2012,03,18,02,58,1.80
2012,03,18,02,59,1.80
2012,03,18,03,00,1.80
2012,03,18,03,01,1.80
2012,03,18,03,02,1.80
2012,03,18,03,06,1.80
2012,03,18,03,07,1.80
2012,03,18,03,08,1.70
2012,03,18,03,09,1.70
2012,03,18,03,10,1.70
2012,03,18,03,11,1.70
2012,03,18,03,12,1.70
2012,03,18,03,13,1.70
2012,03,18,03,14,1.70
2012,03,18,03,15,1.70
2012,03,18,03,16,1.70
2012,03,18,03,17,1.60
2012,03,18,03,18,1.60
2012,03,18,03,19,1.60
2012,03,18,03,20,1.60
2012,03,18,03,21,1.60
2012,03,18,03,22,1.60
2012,03,18,03,23,1.60
2012,03,18,03,24,1.60
2012,03,18,03,25,1.60
2012,03,18,03,26,1.70
2012,03,18,03,27,1.70
2012,03,18,03,28,1.70
2012,03,18,03,29,1.70
2012,03,18,03,30,1.70
2012,03,18,03,31,1.70
2012,03,18,03,32,1.60
2012,03,18,03,33,1.60
2012,03,18,03,34,1.70
2012,03,18,03,35,1.70
2012,03,18,03,36,1.70
2012,03,18,03,37,1.80
2012,03,18,03,38,1.80
2012,03,18,03,39,1.80
2012,03,18,03,40,1.80
2012,03,18,03,41,1.80
2012,03,18,03,42,1.80
2012,03,18,03,43,1.90
2012,03,18,03,44,1.90
2012,03,18,03,45,1.90
2012,03,18,03,46,1.90
2012,03,18,03,47,1.90
2012,03,18,03,48,1.90
2012,03,18,03,49,1.90
2012,03,18,03,50,1.90
2012,03,18,03,51,1.90
2012,03,18,03,52,1.90
2012,03,18,03,53,1.90
2012,03,18,03,54,1.90
2012,03,18,03,55,1.90
2012,03,18,03,56,1.90
2012,03,18,03,57,1.80
2012,03,18,03,58,1.80
2012,03,18,03,59,1.80
2012,03,18,04,00,1.80
2012,03,18,04,01,1.80
2012,03,18,04,02,1.80
2012,03,18,04,03,1.80
2012,03,18,04,04,1.80
2012,03,18,04,05,1.70
2012,03,18,04,06,1.70
2012,03,18,04,07,1.70
2012,03,18,04,08,1.70
2012,03,18,04,09,1.70
2012,03,18,04,10,1.70
2012,03,18,04,11,1.70
2012,03,18,04,12,1.60
2012,03,18,04,13,1.60
2012,03,18,04,14,1.60
2012,03,18,04,15,1.60
2012,03,18,04,16,1.50
2012,03,18,04,17,1.50
2012,03,18,04,18,1.40
2012,03,18,04,19,1.40
2012,03,18,04,20,1.40
2012,03,18,04,21,1.40
2012,03,18,04,22,1.40
2012,03,18,04,23,1.40
2012,03,18,04,24,1.40
2012,03,18,04,25,1.40
2012,03,18,04,26,1.40
2012,03,18,04,27,1.40
2012,03,18,04,28,1.40
2012,03,18,04,29,1.40
2012,03,18,04,30,1.40
2012,03,18,04,31,1.40
2012,03,18,04,32,1.30
2012,03,18,04,33,1.30
2012,03,18,04,34,1.30
2012,03,18,04,35,1.30
2012,03,18,04,36,1.30
2012,03,18,04,37,1.30
2012,03,18,04,38,1.30
2012,03,18,04,39,1.30
2012,03,18,04,40,1.30
2012,03,18,04,41,1.40
2012,03,18,04,42,1.40
2012,03,18,04,43,1.40
2012,03,18,04,44,1.40
2012,03,18,04,45,1.40
2012,03,18,04,46,1.40
2012,03,18,04,47,1.50
2012,03,18,04,48,1.50
2012,03,18,04,49,1.50
2012,03,18,04,50,1.50
2012,03,18,04,51,1.50
2012,03,18,04,52,1.50
2012,03,18,04,53,1.50
2012,03,18,04,54,1.50
2012,03,18,04,55,1.50
2012,03,18,04,56,1.50
2012,03,18,04,57,1.50
2012,03,18,04,58,1.50
2012,03,18,04,59,1.40
2012,03,18,05,00,1.40
2012,03,18,05,01,1.40
2012,03,18,05,02,1.40
2012,03,18,05,03,1.40
2012,03,18,05,04,1.40
2012,03,18,05,05,1.40
2012,03,18,05,06,1.40
2012,03,18,05,07,1.40
2012,03,18,05,08,1.40
2012,03,18,05,09,1.50
2012,03,18,05,10,1.50
2012,03,18,05,11,1.50
2012,03,18,05,12,1.60
2012,03,18,05,13,1.60
2012,03,18,05,14,1.60
2012,03,18,05,15,1.60
2012,03,18,05,16,1.70
2012,03,18,05,17,1.70
2012,03,18,05,18,1.70
2012,03,18,05,19,1.70
2012,03,18,05,20,1.70
2012,03,18,05,21,1.70
2012,03,18,05,22,1.70
2012,03,18,05,23,1.70
2012,03,18,05,24,1.70
2012,03,18,05,25,1.70
2012,03,18,05,26,1.70
2012,03,18,05,27,1.70
2012,03,18,05,28,1.70
2012,03,18,05,29,1.70
2012,03,18,05,30,1.70
2012,03,18,05,31,1.70
2012,03,18,05,32,1.70
2012,03,18,05,33,1.70
2012,03,18,05,34,1.70
2012,03,18,05,35,1.70
2012,03,18,05,36,1.70
2012,03,18,05,37,1.70
2012,03,18,05,38,1.70
2012,03,18,05,39,1.70
2012,03,18,05,40,1.70
2012,03,18,05,41,1.70
2012,03,18,05,42,1.70
2012,03,18,05,43,1.70
2012,03,18,05,44,1.60
2012,03,18,05,45,1.60
2012,03,18,05,46,1.60
2012,03,18,05,47,1.60
2012,03,18,05,48,1.60
2012,03,18,05,49,1.60
2012,03,18,05,50,1.60
2012,03,18,05,51,1.60
2012,03,18,05,52,1.60
2012,03,18,05,53,1.60
2012,03,18,05,54,1.60
2012,03,18,05,55,1.60
2012,03,18,05,56,1.60
2012,03,18,05,57,1.60
2012,03,18,05,58,1.60
2012,03,18,05,59,1.60
2012,03,18,06,00,1.60
2012,03,18,06,01,1.60
2012,03,18,06,02,1.60
2012,03,18,06,03,1.60
2012,03,18,06,04,1.50
2012,03,18,06,05,1.50
2012,03,18,06,06,1.50
2012,03,18,06,07,1.50
2012,03,18,06,08,1.50
2012,03,18,06,09,1.50
2012,03,18,06,10,1.60
2012,03,18,06,11,1.50
2012,03,18,06,12,1.50
2012,03,18,06,13,1.50
2012,03,18,06,14,1.50
2012,03,18,06,15,1.50
2012,03,18,06,16,1.50
2012,03,18,06,17,1.40
2012,03,18,06,18,1.40
2012,03,18,06,19,1.40
2012,03,18,06,20,1.40
2012,03,18,06,21,1.40
2012,03,18,06,22,1.40
2012,03,18,06,23,1.40
2012,03,18,06,24,1.40
2012,03,18,06,25,1.30
2012,03,18,06,26,1.30
2012,03,18,06,27,1.30
2012,03,18,06,28,1.30
2012,03,18,06,29,1.30
2012,03,18,06,30,1.30
2012,03,18,06,31,1.20
2012,03,18,06,32,1.20
2012,03,18,06,33,1.20
2012,03,18,06,34,1.10
2012,03,18,06,35,1.10
2012,03,18,06,36,1.10
2012,03,18,06,37,1.10
2012,03,18,06,38,1.10
2012,03,18,06,39,1.10
2012,03,18,06,40,1.00
2012,03,18,06,41,1.00
2012,03,18,06,42,1.00
2012,03,18,06,43,1.00
2012,03,18,06,44,1.00
2012,03,18,06,45,0.90
2012,03,18,06,46,0.90
2012,03,18,06,47,0.90
2012,03,18,06,48,0.90
2012,03,18,06,49,0.90
2012,03,18,06,50,0.90
2012,03,18,06,51,0.80
2012,03,18,06,52,0.80
2012,03,18,06,53,0.80
2012,03,18,06,54,0.80
2012,03,18,06,55,0.80
2012,03,18,06,56,0.80
2012,03,18,06,57,0.80
2012,03,18,06,58,0.80
2012,03,18,06,59,0.80
2012,03,18,07,00,0.80
2012,03,18,07,01,0.80
2012,03,18,07,02,0.80
2012,03,18,07,03,0.80
2012,03,18,07,04,0.80
2012,03,18,07,05,0.80
2012,03,18,07,06,0.80
2012,03,18,07,07,0.80
2012,03,18,07,08,0.80
2012,03,18,07,09,0.80
2012,03,18,07,10,0.80
2012,03,18,07,11,0.80
2012,03,18,07,12,0.80
2012,03,18,07,13,0.80
2012,03,18,07,14,0.70
2012,03,18,07,15,0.70
2012,03,18,07,16,0.70
2012,03,18,07,17,0.70
2012,03,18,07,18,0.70
2012,03,18,07,19,0.70
2012,03,18,07,20,0.70
2012,03,18,07,21,0.70
2012,03,18,07,22,0.70
2012,03,18,07,23,0.70
2012,03,18,07,24,0.70
2012,03,18,07,25,0.60
2012,03,18,07,26,0.60
2012,03,18,07,27,0.60
2012,03,18,07,28,0.60
2012,03,18,07,29,0.60
2012,03,18,07,30,0.60
2012,03,18,07,31,0.60
2012,03,18,07,32,0.70
2012,03,18,07,33,0.70
2012,03,18,07,34,0.70
2012,03,18,07,35,0.70
2012,03,18,07,36,0.70
2012,03,18,07,37,0.70
2012,03,18,07,38,0.70
2012,03,18,07,39,0.70
2012,03,18,07,40,0.70
2012,03,18,07,41,0.70
2012,03,18,07,42,0.70
2012,03,18,07,43,0.70
2012,03,18,07,44,0.80
2012,03,18,07,45,0.80
2012,03,18,07,46,0.80
2012,03,18,07,47,0.80
2012,03,18,07,48,0.80
2012,03,18,07,49,0.80
2012,03,18,07,50,0.80
2012,03,18,07,51,0.80
2012,03,18,07,52,0.80
2012,03,18,07,53,0.80
2012,03,18,07,54,0.80
2012,03,18,07,55,0.80
2012,03,18,07,56,0.80
2012,03,18,07,57,0.80
2012,03,18,07,58,0.80
2012,03,18,07,59,0.80
2012,03,18,08,00,0.80
2012,03,18,08,01,0.80
2012,03,18,08,02,0.80
2012,03,18,08,03,0.80
2012,03,18,08,04,0.80
2012,03,18,08,05,0.80
2012,03,18,08,06,0.80
2012,03,18,08,07,0.80
2012,03,18,08,08,0.80
2012,03,18,08,09,0.80
2012,03,18,08,10,0.80
2012,03,18,08,11,0.80
2012,03,18,08,12,0.80
2012,03,18,08,13,0.80
2012,03,18,08,14,0.80
2012,03,18,08,15,0.80
2012,03,18,08,16,0.80
2012,03,18,08,17,0.80
2012,03,18,08,18,0.80
2012,03,18,08,19,0.80
2012,03,18,08,20,0.80
2012,03,18,08,21,0.80
2012,03,18,08,22,0.80
2012,03,18,08,23,0.80
2012,03,18,08,24,0.80
2012,03,18,08,25,0.80
2012,03,18,08,26,0.90
2012,03,18,08,27,0.90
2012,03,18,08,28,0.90
2012,03,18,08,29,1.00
2012,03,18,08,30,1.00
2012,03,18,08,31,1.00
2012,03,18,08,32,1.10
2012,03,18,08,33,1.10
2012,03,18,08,34,1.20
2012,03,18,08,35,1.20
2012,03,18,08,36,1.20
2012,03,18,08,37,1.20
2012,03,18,08,38,1.30
2012,03,18,08,39,1.30
2012,03,18,08,40,1.30
2012,03,18,08,41,1.30
2012,03,18,08,42,1.30
2012,03,18,08,43,1.40
2012,03,18,08,44,1.40
2012,03,18,08,45,1.40
2012,03,18,08,46,1.40
2012,03,18,08,47,1.40
2012,03,18,08,48,1.40
2012,03,18,08,49,1.50
2012,03,18,08,50,1.50
2012,03,18,08,51,1.60
2012,03,18,08,52,1.70
2012,03,18,08,53,1.70
2012,03,18,08,54,1.80
2012,03,18,08,55,1.80
2012,03,18,08,56,1.80
2012,03,18,08,57,1.90
2012,03,18,08,58,1.90
2012,03,18,08,59,2.00
2012,03,18,09,00,2.00
2012,03,18,09,01,2.00
2012,03,18,09,02,2.00
2012,03,18,09,03,2.10
2012,03,18,09,04,2.10
2012,03,18,09,05,2.20
2012,03,18,09,06,2.20
2012,03,18,09,07,2.30
2012,03,18,09,08,2.30
2012,03,18,09,09,2.30
2012,03,18,09,10,2.30
2012,03,18,09,11,2.40
2012,03,18,09,12,2.30
2012,03,18,09,13,2.30
2012,03,18,09,14,2.30
2012,03,18,09,15,2.40
2012,03,18,09,16,2.40
2012,03,18,09,17,2.40
2012,03,18,09,18,2.40
2012,03,18,09,19,2.40
2012,03,18,09,20,2.40
2012,03,18,09,21,2.40
2012,03,18,09,22,2.40
2012,03,18,09,23,2.40
2012,03,18,09,24,2.40
2012,03,18,09,25,2.40
2012,03,18,09,26,2.40
2012,03,18,09,27,2.50
2012,03,18,09,28,2.50
2012,03,18,09,29,2.50
2012,03,18,09,30,2.50
2012,03,18,09,31,2.50
2012,03,18,09,32,2.50
2012,03,18,09,33,2.50
2012,03,18,09,34,2.50
2012,03,18,09,35,2.50
2012,03,18,09,36,2.50
2012,03,18,09,37,2.60
2012,03,18,09,38,2.60
2012,03,18,09,39,2.70
2012,03,18,09,40,2.70
2012,03,18,09,41,2.70
2012,03,18,09,42,2.70
2012,03,18,09,43,2.80
2012,03,18,09,44,2.80
2012,03,18,09,45,2.80
2012,03,18,09,46,2.80
2012,03,18,09,47,2.80
2012,03,18,09,48,2.80
2012,03,18,09,49,2.80
2012,03,18,09,50,2.80
2012,03,18,09,51,2.80
2012,03,18,09,52,2.80
2012,03,18,09,53,2.80
2012,03,18,09,54,2.80
2012,03,18,09,55,2.80
2012,03,18,09,56,2.90
2012,03,18,09,57,2.90
2012,03,18,09,58,2.90
2012,03,18,09,59,2.90
2012,03,18,10,00,2.90
2012,03,18,10,01,2.90
2012,03,18,10,02,2.90
2012,03,18,10,03,2.90
2012,03,18,10,04,2.90
2012,03,18,10,05,2.90
2012,03,18,10,06,2.90
2012,03,18,10,07,2.90
2012,03,18,10,08,2.90
2012,03,18,10,09,2.90
2012,03,18,10,10,2.90
2012,03,18,10,11,3.00
2012,03,18,10,12,3.00
2012,03,18,10,13,3.00
2012,03,18,10,14,3.00
2012,03,18,10,15,3.00
2012,03,18,10,16,3.10
2012,03,18,10,17,3.10
2012,03,18,10,18,3.10
2012,03,18,10,19,3.20
2012,03,18,10,20,3.20
2012,03,18,10,21,3.30
2012,03,18,10,22,3.30
2012,03,18,10,23,3.20
2012,03,18,10,24,3.20
2012,03,18,10,25,3.20
2012,03,18,10,26,3.30
2012,03,18,10,27,3.30
2012,03,18,10,28,3.30
2012,03,18,10,29,3.40
2012,03,18,10,30,3.40
2012,03,18,10,31,3.50
2012,03,18,10,32,3.50
2012,03,18,10,33,3.60
2012,03,18,10,34,3.60
2012,03,18,10,35,3.60
2012,03,18,10,36,3.70
2012,03,18,10,37,3.70
2012,03,18,10,38,3.80
2012,03,18,10,39,3.80
2012,03,18,10,40,3.90
2012,03,18,10,41,3.90
2012,03,18,10,42,3.90
2012,03,18,10,43,3.80
2012,03,18,10,44,3.70
2012,03,18,10,45,3.70
2012,03,18,10,46,3.60
2012,03,18,10,47,3.50
2012,03,18,10,48,3.50
2012,03,18,10,49,3.40
2012,03,18,10,50,3.40
2012,03,18,10,51,3.50
2012,03,18,10,52,3.50
2012,03,18,10,53,3.50
2012,03,18,10,54,3.60
2012,03,18,10,55,3.60
2012,03,18,10,56,3.70
2012,03,18,10,57,3.80
2012,03,18,10,58,3.80
2012,03,18,10,59,3.90
2012,03,18,11,00,3.90
2012,03,18,11,01,3.90
2012,03,18,11,02,3.90
2012,03,18,11,03,3.90
2012,03,18,11,04,3.90
2012,03,18,11,05,4.00
2012,03,18,11,06,4.00
2012,03,18,11,07,4.00
2012,03,18,11,08,4.00
2012,03,18,11,09,4.10
2012,03,18,11,10,4.10
2012,03,18,11,11,4.10
2012,03,18,11,12,4.20
2012,03,18,11,13,4.20
2012,03,18,11,14,4.20
2012,03,18,11,15,4.20
2012,03,18,11,16,4.20
2012,03,18,11,17,4.20
2012,03,18,11,18,4.10
2012,03,18,11,19,4.10
2012,03,18,11,20,4.10
2012,03,18,11,21,4.00
2012,03,18,11,22,4.00
2012,03,18,11,23,3.90
2012,03,18,11,24,3.90
2012,03,18,11,25,3.90
2012,03,18,11,26,3.90
2012,03,18,11,27,3.90
2012,03,18,11,28,3.90
2012,03,18,11,29,3.90
2012,03,18,11,30,3.90
2012,03,18,11,31,3.90
2012,03,18,11,32,3.90
2012,03,18,11,33,4.00
2012,03,18,11,34,4.00
2012,03,18,11,35,4.10
2012,03,18,11,36,4.20
2012,03,18,11,37,4.20
2012,03,18,11,38,4.20
2012,03,18,11,39,4.30
2012,03,18,11,40,4.30
2012,03,18,11,41,4.40
2012,03,18,11,42,4.50
2012,03,18,11,43,4.50
2012,03,18,11,44,4.50
2012,03,18,11,45,4.40
2012,03,18,11,46,4.40
2012,03,18,11,47,4.40
2012,03,18,11,48,4.40
2012,03,18,11,49,4.40
2012,03,18,11,50,4.40
2012,03,18,11,51,4.50
2012,03,18,11,52,4.60
2012,03,18,11,53,4.70
2012,03,18,11,54,4.70
2012,03,18,11,55,4.70
2012,03,18,11,56,4.70
2012,03,18,11,57,4.70
2012,03,18,11,58,4.70
2012,03,18,11,59,4.80
2012,03,18,12,00,4.80
2012,03,18,12,01,4.80
2012,03,18,12,02,4.80
2012,03,18,12,03,4.90
2012,03,18,12,04,4.90
2012,03,18,12,05,4.90
2012,03,18,12,06,4.90
2012,03,18,12,07,4.90
2012,03,18,12,08,4.90
2012,03,18,12,09,4.90
2012,03,18,12,10,4.80
2012,03,18,12,11,4.90
2012,03,18,12,12,4.80
2012,03,18,12,13,4.80
2012,03,18,12,14,4.70
2012,03,18,12,15,4.70
2012,03,18,12,16,4.80
2012,03,18,12,17,4.80
2012,03,18,12,18,4.90
2012,03,18,12,19,4.90
2012,03,18,12,20,4.90
2012,03,18,12,21,4.90
2012,03,18,12,22,4.90
2012,03,18,12,23,4.90
2012,03,18,12,24,4.90
2012,03,18,12,25,4.90
2012,03,18,12,26,4.90
2012,03,18,12,27,4.90
2012,03,18,12,28,5.00
2012,03,18,12,29,5.00
2012,03,18,12,30,4.90
2012,03,18,12,31,4.90
2012,03,18,12,32,4.80
2012,03,18,12,33,4.70
2012,03,18,12,34,4.70
2012,03,18,12,35,4.70
2012,03,18,12,36,4.70
2012,03,18,12,37,4.70
2012,03,18,12,38,4.70
